This is the latest recevied weather packets stored in our database for station/object SR9WXGR. If no packets are shown the sender has not sent any weather packets the latest 10 day(s).
| Time | Temp. | Humidity | Pressure | Rain* | Wind** | Luminosity | Snow |
|---|---|---|---|---|---|---|---|
| 1778153701 | 25.56° C | 28% | 972 hPa | - | - | - | - |
| 1778150101 | 25.56° C | 29% | 972 hPa | - | - | - | - |
| 1778146501 | 25° C | 30% | 971 hPa | - | - | - | - |
| 1778142901 | 23.89° C | 33% | 971 hPa | - | - | - | - |
| 1778139301 | 22.78° C | 35% | 970 hPa | - | - | - | - |
| 1778135701 | 20.56° C | 40% | 970 hPa | - | - | - | - |
| 1778132100 | 20° C | 40% | 970 hPa | - | - | - | - |
| 1778128500 | 18.89° C | 44% | 970 hPa | - | - | - | - |
| 1778124901 | 18.89° C | 41% | 969 hPa | - | - | - | - |
| 1778117701 | 18.89° C | 55% | 969 hPa | - | - | - | - |
| 1778114100 | 20° C | 41% | 969 hPa | - | - | - | - |
| 1778110502 | 20° C | 39% | 969 hPa | - | - | - | - |
| 1778106901 | 20° C | 37% | 969 hPa | - | - | - | - |
| 1778103301 | 20° C | 35% | 969 hPa | - | - | - | - |
| 1778099701 | 20.56° C | 34% | 969 hPa | - | - | - | - |
| 1778096101 | 21.67° C | 34% | 969 hPa | - | - | - | - |
| 1778092501 | 21.67° C | 32% | 969 hPa | - | - | - | - |
| 1778088901 | 23.89° C | 29% | 968 hPa | - | - | - | - |
| 1778085301 | 27.78° C | 23% | 968 hPa | - | - | - | - |
| 1778081701 | 32.78° C | 19% | 968 hPa | - | - | - | - |
| 1778078101 | 30.56° C | 22% | 968 hPa | - | - | - | - |
| 1778074501 | 30° C | 23% | 968 hPa | - | - | - | - |
| 1778070901 | 26.67° C | 25% | 968 hPa | - | - | - | - |
| 1778067301 | 25° C | 28% | 968 hPa | - | - | - | - |
| 1778060101 | 22.78° C | 27% | 969 hPa | - | - | - | - |
* Rain since midnight (hover to see other rain measurements)
** Current wind speed in m/s (hover to see current wind gust speed)